Location: Ash Swamp
(41.5170°N, 74.6157°W)
Time: 00:19:47
(UTC+00:00)

Cosmos 1758 Rocket - Visible Passes

Search period start: 24 October 2020 00:00
Search period end: 03 November 2020 00:00
Orbit: 603 x 635 km, 82.5° (Epoch: 23 October)

Date Brightness Start Highest point End Pass type
(mag) Time Alt. Az. Time Alt. Az. Time Alt. Az.
24 Oct 6.6 10:48:40 10° SE 10:52:05 22° E 10:55:30 10° NE visible
24 Oct 3.5 22:33:45 10° N 22:38:08 63° E 22:42:26 10° SSE visible
25 Oct 7.1 00:14:14 10° WNW 00:15:22 11° W 00:16:30 10° W visible
25 Oct 4.0 22:51:04 10° NNW 22:55:27 68° W 22:59:46 10° S visible
26 Oct 5.3 23:08:40 10° NNW 23:12:40 35° W 23:16:38 10° SSW visible
27 Oct 7.0 10:04:36 10° ESE 10:06:30 13° E 10:08:24 10° ENE visible
27 Oct 6.5 23:26:41 10° NW 23:29:47 19° W 23:32:53 10° SW visible
28 Oct 6.4 10:20:04 10° SE 10:23:34 23° E 10:27:05 10° NE visible
28 Oct 7.2 23:46:21 10° WNW 23:46:49 10° W 23:47:17 10° W visible
29 Oct 5.1 10:36:31 10° SSE 10:40:43 41° E 10:44:57 10° NNE visible
29 Oct 4.1 22:22:35 10° NNW 22:26:56 64° W 22:31:13 10° S visible
30 Oct 3.8 10:53:29 10° S 10:57:59 80° E 11:02:29 10° N visible
30 Oct 5.6 22:40:13 10° NNW 22:44:09 33° W 22:48:01 10° SSW visible
31 Oct 7.0 09:35:52 10° ESE 09:37:59 13° E 09:40:05 10° NE visible
31 Oct 6.6 22:58:17 10° NW 23:01:15 18° W 23:04:13 10° SW visible
01 Nov 6.1 09:51:28 10° SE 09:55:03 24° E 09:58:39 10° NE visible
02 Nov 4.9 10:07:58 10° SSE 10:12:13 44° E 10:16:28 10° NNE visible
